Regional Weather Roundup
Issued by NWS

Home | Current Version | Previous Version | Graphics & Text | Print | Product List | Glossary On
Versions: 1 2 3 4 5 6 7 8 9 10 11 12 13 14 15 16 17 18 19 20 21 22 23 24 25 26 27 28 29 30 31 32 33 34 35 36 37 38 39 40 41 42 43 44 45 46 47 48 49 50
000
ASUS43 KDMX 242306
RWRIA

WEATHER ROUNDUP FOR IOWA
NATIONAL WEATHER SERVICE DES MOINES IA
600 PM CDT SUN SEP 24 2017

NOTE: "FAIR" INDICATES FEW OR NO CLOUDS BELOW 12,000 FEET WITH NO
SIGNIFICANT WEATHER AND/OR OBSTRUCTIONS TO VISIBILITY.

* - THESE STATIONS ARE NOT NWS STATIONS...THUS NOT UNDER NWS
QUALITY CONTROL.  THEY ALSO DO NOT REPORT WEATHER SUCH
AS PRECIPITATION OR FOG.

IAZ001>003-012>014-020>022-031>034-043>046-250000-
   NORTHWEST IOWA

CITY           SKY/WX    TMP DP  RH WIND       PRES   REMARKS
CARROLL *      PTSUNNY   79  64  61 NW7       29.89R HX  81
CHEROKEE *     PTSUNNY   71  69  94 NW5       29.90F
DENISON *      HVY RAIN  68  66  94 MISG      29.91S
LE MARS *      CLOUDY    70  63  78 NW7       29.94R
ORANGE CITY *  CLOUDY    70  64  83 NW6       29.94R
SHELDON *      CLOUDY    68  63  83 W7        29.94R
SIOUX CITY     LGT RAIN  67  63  87 NW14      29.93R
SPENCER        LGT RAIN  75  68  78 W15G21    29.92R
STORM LAKE *   CLOUDY    72  61  68 S5        29.91R
$$

IAZ055>058-069>071-079>083-090>094-250000-
   SOUTHWEST IOWA

CITY           SKY/WX    TMP DP  RH WIND       PRES   REMARKS
ATLANTIC *     MOSUNNY   86  63  45 S8G16     29.88R HX  87
AUDUBON *      SUNNY     82  66  57 S5        29.90R HX  85
CLARINDA *     MOSUNNY   88  64  45 S12       29.90R HX  89
COUNCIL BLFS * PTSUNNY   79  72  78 SE6       29.89R HX  82
CRESTON *      SUNNY     86  63  45 SE14      29.91F HX  87
HARLAN  *      RAIN      72  68  88 NW12      29.93R
LAMONI         SUNNY     86  64  47 S6G17     29.91F HX  87
RED OAK *      LGT RAIN  75  68  78 W14G23    29.88R
SHENANDOAH *   PTSUNNY   77  68  73 CALM      29.88F
$$

IAZ047>049-059>061-072>074-084-250000-
   CENTRAL IOWA

CITY           SKY/WX    TMP DP  RH WIND       PRES   REMARKS
AMES           SUNNY     86  63  45 S12       29.89F HX  87
ANKENY *       SUNNY     88  63  42 S13       29.91R HX  88
BOONE *        SUNNY     88  63  42 S14       29.89S HX  88
CHARITON *     SUNNY     84  63  48 S9        29.92S HX  85
DES MOINES     MOSUNNY   88  61  40 SE13      29.89S HX  88
GRINNELL*      SUNNY     86  61  42 S7        29.94S HX  86
KNOXVILLE *    SUNNY     86  61  42 S7G14     29.91S HX  86
MARSHALLTOWN   SUNNY     86  63  45 S8        29.91S HX  87
NEWTON *       SUNNY     86  61  42 S9        29.92S HX  86
PELLA *        SUNNY     88  60  37 S10G16    29.93S HX  87
PERRY *          N/A     90  55  30 SE9       29.89R HX  87
$$

IAZ004>006-015-016-023>025-035-036-250000-
   NORTH CENTRAL IOWA

CITY           SKY/WX    TMP DP  RH WIND       PRES   REMARKS
ALGONA *       MOSUNNY   84  66  54 SW8       29.88S HX  86
CLARION *      SUNNY     88  63  42 S15       29.89S HX  88
ESTHERVILLE    PTSUNNY   74  67  78 S7        29.89R
FORT DODGE *   SUNNY     87  61  41 S12       29.89R HX  87
MASON CITY     SUNNY     86  60  41 S12       29.91S HX  86
FOREST CITY *    N/A     84  59  42 S13G18    29.89S HX  84
WEBSTER CITY * SUNNY     86  63  45 S9G18     29.87S HX  87
IOWA FALLS *     N/A     87  62  43 S10       29.92S HX  87
$$

IAZ007>011-017>019-026>030-037>042-050>054-066-250000-
   NORTHEAST IOWA

CITY           SKY/WX    TMP DP  RH WIND       PRES   REMARKS
CEDAR RAPIDS   SUNNY     87  61  41 S9        29.94S HX  87
CHARLES CITY * PTSUNNY   88  61  40 S6G13     29.92S HX  88
CLINTON *      CLEAR    N/A N/A N/A S6        29.97F
DECORAH *      MOSUNNY   84  63  48 S6G13     29.93S HX  85
DUBUQUE        PTCLDY    82  64  54 SE8       29.98F HX  83
MONTICELLO *   CLEAR     88  63  42 S7        29.95S HX  88
OELWEIN *      MOSUNNY   88  63  42 S12       29.94S HX  88
WATERLOO       SUNNY     87  59  38 S13       29.90F HX  86
$$

IAZ064-065-067-068-078-250000-
   EAST CENTRAL IOWA

CITY           SKY/WX    TMP DP  RH WIND       PRES   REMARKS
DAVENPORT      CLEAR     85  64  49 S3        29.98S HX  86
IOWA CITY      SUNNY     89  63  41 SE7       29.95S HX  90
MUSCATINE *    CLEAR     88  63  42 SE6       29.94F HX  88
QUAD CITIES    CLEAR     87  65  47 CALM      29.95S HX  89
$$

IAZ062-063-075>077-085>089-095>099-250000-
   SOUTHEAST IOWA

CITY           SKY/WX    TMP DP  RH WIND       PRES   REMARKS
BURLINGTON     SUNNY     87  64  46 S6        29.95S HX  88
FAIRFIELD *    SUNNY     86  63  45 SE9       29.94S HX  87
FORT MADISON * PTSUNNY   90  63  40 SE6       29.96R HX  90
KEOKUK *       SUNNY     90  61  37 S7        29.94S HX  89
OSKALOOSA *      N/A     87  62  42 S10       29.93F HX  87
OTTUMWA        SUNNY     87  64  46 SE9       29.93F HX  88
WASHINGTON *   SUNNY     88  63  42 S6G12     29.95F HX  88
$$

ABBREVIATIONS USED IN REMARKS
   TC - TEMPERATURES IN CELSIUS
  WCI - WIND CHILL INDEX
   HX - HEAT INDEX
  VSB - VISIBILITY
$$





USA.gov is the U.S. government's official web portal to all federal, state and local government web resources and services.